Regional Weather Roundup
Issued by NWS Cleveland, OH

Home | Current Version | Previous Version | Graphics & Text | Print | Product List | Glossary On
Versions: 1 2 3 4 5 6 7 8 9 10 11 12 13 14 15 16 17 18 19 20 21 22 23 24 25 26 27 28 29 30 31 32 33 34 35 36 37 38 39 40 41 42 43 44 45 46 47 48 49 50
000
ASUS41 KCLE 271102
RWRCLE
OHIO REGIONAL WEATHER ROUNDUP
NATIONAL WEATHER SERVICE CLEVELAND, OH
700 AM EDT WED AUG 27 2014

NOTE: "FAIR" INDICATES FEW OR NO CLOUDS BELOW 12,000 FEET WITH NO
SIGNIFICANT WEATHER AND/OR OBSTRUCTIONS TO VISIBILITY.

OHZ001>008-015>018-024>027-034-035-043-044-271200-
   NORTHWEST OHIO

CITY           SKY/WX    TMP DP  RH WIND       PRES   REMARKS
DEFIANCE       CLOUDY    69  66  90 N6        30.11R FOG
FINDLAY        FOG       69  67  93 W3        30.09S VSB 1/2
TOLEDO EXPRESS MOCLDY    68  65  90 N3        30.09S
TOLEDO EXEC    CLOUDY    70  65  84 N3        30.10R
LIMA           CLOUDY    70  68  93 NW3       30.11R FOG
$$

OHZ009>014-019>023-028>033-038-089-271200-
   NORTHEAST OHIO

CITY           SKY/WX    TMP DP  RH WIND       PRES   REMARKS
CLE-HOPKINS    CLOUDY    72  70  93 N3        30.10R FOG
CLE-LAKEFRONT  CLOUDY    73  69  87 NE3       30.07R
CUY CO. ARPT   CLOUDY    72  72 100 SE5       30.09  FOG
LORAIN-ELYRIA  CLOUDY    75  70  84 CALM      30.09S
ASHTABULA      CLOUDY    70  69  97 CALM      30.09S FOG
AKRON-CANTON   PTCLDY    70  66  87 CALM      30.09S FOG
WOOSTER        FOG       66  64  93 CALM      30.11R VSB 1/2
MANSFIELD      FOG       70  70 100 N3        30.11R VSB 1/4
YOUNGSTOWN     MOCLDY    67  66  97 CALM      30.10S FOG
$$

OHZ042-051>053-060>062-070>072-077>081-271200-
  SOUTHWEST OHIO

CITY           SKY/WX    TMP DP  RH WIND       PRES   REMARKS
CINC-COVINGTON PTCLDY    72  68  87 CALM      30.10R
CINC-LUNKEN    PTCLDY    69  68  96 CALM      30.10R FOG
HAMILTON       PTCLDY    69  68  96 CALM      30.10S FOG
DAYTON         MOCLDY    70  67  90 CALM      30.11S
WRIGHT-PAT AFB MOCLDY    69  68  95 E2        30.10S
DAYTON GENERAL PTCLDY    71  69  93 CALM      30.09S FOG
WILMINGTON     PTCLDY    67  64  90 CALM      30.10S
$$

OHZ036-037-039>041-045>050-054>059-063>069-073>076-082>088-271200-
  CENTRAL AND SOUTHEAST OHIO

CITY           SKY/WX    TMP DP  RH WIND       PRES   REMARKS
COLUMBUS       PTCLDY    72  66  81 CALM      30.09S
OSU AIRPORT    CLEAR     70  67  90 CALM      30.10R FOG
BOLTON FIELD   PTCLDY    65  65 100 CALM      30.11R FOG
RICKENBACK AFB CLEAR     67  62  84 CALM      30.10R
NEWARK         FOG       63  62  97 CALM      30.10R VSB 1
MARION         FOG       69  68  96 N3        30.10S VSB 3/4
LANCASTER      CLEAR     65  62  90 CALM      30.10S FOG
ZANESVILLE     CLEAR     66  64  93 S3        30.10S FOG
NEW PHILLY     NOT AVBL
$$


USA.gov is the U.S. government's official web portal to all federal, state and local government web resources and services.